Regional Weather Roundup
Issued by NWS

Home | Current Version | Previous Version | Graphics & Text | Print | Product List | Glossary On
Versions: 1 2 3 4 5 6 7 8 9 10 11 12 13 14 15 16 17 18 19 20 21 22 23 24 25 26 27 28 29 30 31 32 33 34 35 36 37 38 39 40 41 42 43 44 45 46 47 48 49 50
000
ASUS43 KLOT 290603
RWRIL

ILLINOIS REGIONAL WEATHER ROUNDUP
NATIONAL WEATHER SERVICE CHICAGO/ROMEOVILLE IL
100 AM CDT SUN MAY 29 2016

NOTE: "FAIR" INDICATES FEW OR NO CLOUDS BELOW 12,000 FEET WITH NO
SIGNIFICANT WEATHER AND/OR OBSTRUCTIONS TO VISIBILITY.

* THESE STATIONS ARE NOT UNDER NWS QUALITY CONTROL. THEY ALSO MAY NOT
  REPORT WEATHER SUCH AS PRECIPITATION OR FOG.

ILZ001-002-007-009-015-016-024-290700-
NORTHWEST ILLINOIS

CITY           SKY/WX    TMP DP  RH WIND       PRES   REMARKS
MOLINE         MOCLDY    69  59  70 S8        29.94S
6HR MIN TEMP:  69; 6HR MAX TEMP:  80;

STERLING*      PTCLDY    68  64  87 CALM      29.96R
$$

ILZ003-004-008-010-011-017-018-290700-
NORTH CENTRAL ILLINOIS

CITY           SKY/WX    TMP DP  RH WIND       PRES   REMARKS
ROCKFORD       CLOUDY    71  63  75 SW7       29.96S
6HR MIN TEMP:  68; 6HR MAX TEMP:  83; 6HR PCP: TRACE;

FREEPORT*      CLOUDY    65  59  82 SW10      29.96S
ROCHELLE*      CLOUDY    67  63  87 S10       29.96S
$$

ILZ005-006-012>014-019>023-290700-
NORTHEAST ILLINOIS

CITY           SKY/WX    TMP DP  RH WIND       PRES   REMARKS
CHICAGO-OHARE  MOCLDY    67  61  81 SW9       29.96S
6HR MIN TEMP:  64; 6HR MAX TEMP:  79; 6HR PCP:  0.13;

CHICAGO-MIDWAY CLOUDY    71  55  56 SW9       29.97S
6HR MIN TEMP:  71; 6HR MAX TEMP:  82;

AURORA         CLOUDY    66  61  84 SW9       29.97F
6HR MIN TEMP:  65; 6HR MAX TEMP:  82; 6HR PCP:  0.44;

LANSING*       CLOUDY    69  56  62 SW13      30.01R
WAUKEGAN       MOCLDY    65  62  90 SW8       29.94S
6HR MIN TEMP:  64; 6HR MAX TEMP:  80; 6HR PCP:  0.09;

DUPAGE AIRPORT LGT RAIN  65  59  81 SW9       29.97S
6HR MIN TEMP:  65; 6HR MAX TEMP:  79; 6HR PCP:  0.11;

WHEELING       CLOUDY    67  63  87 SW13      29.97S
6HR MIN TEMP:  64; 6HR MAX TEMP:  80; 6HR PCP:  0.20;

NORTHERLY ISL    N/A     72  54  53 SW9         N/A
NORTHERLY ISL    N/A     72  54  53 SW9         N/A
$$

LMZ740>746-290700-
SOUTHERN LAKE MICHIGAN

STATION/POSITION SKY/WX   TEMP    WIND        PRES    VSBY  WAVE
                          AIR SEA DIR/SP/G                  HT/PER
                          (F)     (DEG/KT/KT) (MB)    (MI)  (FT/S)
SOUTHERN BUOY              57 50  220/ 10/ 12 1014.8          1/ 4
WILMETTE HARBOR            60 51  220/  6/  6   N/A           1/ 3
HARRISON CRIB              72     230/  8/  8   N/A
BURNHAM HARBOR             72     210/  7/ 10   N/A
CALUMET HARBOR             73     200/  9/ 11 1014.6R
BURNS HARBOR               73     200/ 12/ 19 1015.6R
MICHIGAN CITY              73     160/ 11/ 14   N/A
MICHIGAN CITY 6N           67 57  200/  8/ 12   N/A           1/ 2
ST. JOSEPH                 69 61  180/ 12/ 17   N/A           2/ 3
$$

ILZ025>027-034>036-040-047-049-050-058-095>099-290700-
WEST-CENTRAL ILLINOIS

CITY           SKY/WX    TMP DP  RH WIND       PRES   REMARKS
QUINCY         CLEAR     66  60  81 S6        30.00R
MACOMB*        PTCLDY    66  61  84 W9        30.00S
PITTSFIELD*    PTCLDY    68  64  87 SW5       30.02R
$$

ILZ028>032-037-038-041>044-048-051>054-059>061-290700-
CENTRAL ILLINOIS

CITY           SKY/WX    TMP DP  RH WIND       PRES   REMARKS
BLOOMINGTON    CLOUDY    65  64  96 S8        30.02F
DECATUR        CLOUDY    72  66  81 S8        30.00F
PEORIA         CLEAR     65  63  93 S5        29.99R
6HR MIN TEMP:  65; 6HR MAX TEMP:  81; 6HR PCP:  0.04;

SPRINGFIELD    CLOUDY    75  67  76 SW5       30.00S
6HR MIN TEMP:  74; 6HR MAX TEMP:  82;

TAYLORVILLE    NOT AVBL
$$

ILZ033-039-045-046-055>057-062-063-290700-
EAST-CENTRAL ILLINOIS

CITY           SKY/WX    TMP DP  RH WIND       PRES   REMARKS
CHAMPAIGN      PTCLDY    71  65  81 S9        30.02F
MATTOON        CLEAR     71  65  81 S5        30.01F
$$

ILZ079-100>102-290700-
SOUTHWEST ILLINOIS

CITY           SKY/WX    TMP DP  RH WIND       PRES   REMARKS
BELLEVILLE     CLEAR     72  70  94 VRB1      30.01R
CAHOKIA*       CLEAR     71  64  78 CALM      30.01R
SPARTA*        CLEAR     71  67  88 SW6       30.03R
$$

ILZ064>066-069>071-074>076-080>082-084>086-088>090-092>094-290700-
SOUTH-CENTRAL ILLINOIS

CITY           SKY/WX    TMP DP  RH WIND       PRES   REMARKS
CARBONDALE     CLEAR     66  64  93 S3        30.03R
6HR MIN TEMP:  66; 6HR MAX TEMP:  78;

MT. VERNON     PTCLDY    70  64  83 SW3       30.03S
SALEM*         CLEAR     73  68  83 S10       30.00S
$$

ILZ067-068-072-073-078-083-087-091-290700-
SOUTHEAST ILLINOIS

CITY           SKY/WX    TMP DP  RH WIND       PRES   REMARKS
LAWRENCEVILLE  PTCLDY    70  68  93 S7        30.03F
FLORA*         PTCLDY    71  68  89 SW3       30.02S
HARRISBURG*    CLEAR     68  67  98 CALM      30.04S
ROBINSON*      PTCLDY    68  65  93 S6        30.03F
$$

ABBREVIATIONS USED IN REMARKS
   TC - TEMPERATURE IN CELSIUS
  WCI - WIND CHILL INDEX
   HX - HEAT INDEX
  VSB - VISIBILITY
$$





USA.gov is the U.S. government's official web portal to all federal, state and local government web resources and services.